• In Latvia
  • List of Countries
  • For 7 days
  • Water Temperature
  • Satellite Maps
  • Weather Map
  • Weather Widgets
  • user-avatar
    Login

    Hourly Weather Río Gallegos

    Today, 20 October, Friday

    Time Temperature Precipitation Wind Pressure Humidity
    00:00 +1°C° 0 mm 4 mps 755 mmHg 66%
    01:00 +1°C° 0 mm 5 mps 755 mmHg 67%
    02:00 +1°C° 0 mm 5 mps 756 mmHg 68%
    03:00 0°C° 0 mm 4 mps 756 mmHg 68%
    04:00 0°C° 0 mm 4 mps 756 mmHg 69%
    05:00 +1°C° 0 mm 4 mps 757 mmHg 65%
    06:00 +1°C° 0 mm 4 mps 757 mmHg 62%
    07:00 +2°C° 0 mm 5 mps 757 mmHg 57%
    08:00 +3°C° 0 mm 5 mps 758 mmHg 54%
    09:00 +5°C° 0 mm 5 mps 758 mmHg 51%
    10:00 +6°C° 0 mm 5 mps 758 mmHg 48%
    11:00 +7°C° 0 mm 5 mps 758 mmHg 48%
    12:00 +7°C° 0 mm 5 mps 758 mmHg 47%
    13:00 +8°C° 0 mm 5 mps 758 mmHg 46%
    14:00 +8°C° 0 mm 5 mps 758 mmHg 47%
    15:00 +8°C° 0 mm 5 mps 759 mmHg 47%
    16:00 +8°C° 0 mm 5 mps 759 mmHg 48%
    17:00 +7°C° 0 mm 4 mps 759 mmHg 50%
    18:00 +7°C° 0 mm 4 mps 760 mmHg 52%
    19:00 +7°C° 0 mm 3 mps 760 mmHg 54%
    20:00 +7°C° 0 mm 3 mps 760 mmHg 56%
    21:00 +5°C° 0 mm 3 mps 761 mmHg 58%
    22:00 +5°C° 0 mm 3 mps 761 mmHg 60%
    23:00 +4°C° 0 mm 3 mps 761 mmHg 62%

    Tomorrow, 21 October, Saturday

    Time Temperature Precipitation Wind Pressure Humidity
    00:00 +4°C° 0 mm 3 mps 762 mmHg 65%
    01:00 +3°C° 0 mm 3 mps 762 mmHg 67%
    02:00 +3°C° 0 mm 3 mps 762 mmHg 69%
    03:00 +3°C° 0 mm 3 mps 762 mmHg 70%
    04:00 +2°C° 0 mm 3 mps 762 mmHg 72%
    05:00 +4°C° 0 mm 3 mps 762 mmHg 67%
    06:00 +5°C° 0 mm 3 mps 762 mmHg 62%
    07:00 +7°C° 0 mm 4 mps 762 mmHg 56%
    08:00 +8°C° 0 mm 5 mps 762 mmHg 54%
    09:00 +9°C° 0 mm 6 mps 761 mmHg 52%
    10:00 +10°C° 0 mm 7 mps 761 mmHg 50%
    11:00 +10°C° 0 mm 7 mps 760 mmHg 50%
    12:00 +11°C° 0 mm 8 mps 759 mmHg 50%
    13:00 +11°C° 0 mm 9 mps 758 mmHg 49%
    14:00 +11°C° 0 mm 9 mps 757 mmHg 49%
    15:00 +11°C° 0 mm 9 mps 756 mmHg 49%
    16:00 +11°C° 0 mm 9 mps 755 mmHg 49%
    17:00 +11°C° 0 mm 9 mps 754 mmHg 49%
    18:00 +11°C° 0 mm 8 mps 753 mmHg 50%
    19:00 +10°C° 0 mm 8 mps 752 mmHg 51%
    20:00 +10°C° 0 mm 8 mps 751 mmHg 52%
    21:00 +10°C° 0 mm 8 mps 751 mmHg 52%
    22:00 +10°C° 0 mm 8 mps 750 mmHg 53%
    23:00 +10°C° 0 mm 7 mps 749 mmHg 55%

    Day after tomorrow, 22 October, Sunday

    Time Temperature Precipitation Wind Pressure Humidity
    00:00 +10°C° 0 mm 6 mps 749 mmHg 56%
    01:00 +10°C° 0 mm 6 mps 748 mmHg 57%
    02:00 +9°C° 0 mm 5 mps 748 mmHg 59%
    03:00 +10°C° 0 mm 4 mps 747 mmHg 60%
    04:00 +10°C° 0 mm 4 mps 747 mmHg 61%
    05:00 +10°C° 0 mm 4 mps 746 mmHg 60%
    06:00 +11°C° 0 mm 4 mps 746 mmHg 59%
    07:00 +11°C° 0 mm 4 mps 745 mmHg 58%
    08:00 +12°C° 0 mm 4 mps 744 mmHg 54%
    09:00 +14°C° 0 mm 4 mps 744 mmHg 50%
    10:00 +15°C° 0 mm 4 mps 743 mmHg 46%
    11:00 +16°C° 0 mm 5 mps 742 mmHg 42%
    12:00 +19°C° 0 mm 6 mps 741 mmHg 39%
    13:00 +20°C° 0 mm 7 mps 740 mmHg 36%
    14:00 +18°C° 0 mm 7 mps 739 mmHg 39%
    15:00 +17°C° 0 mm 8 mps 739 mmHg 42%
    16:00 +16°C° 0 mm 8 mps 738 mmHg 45%
    17:00 +15°C° 0 mm 7 mps 739 mmHg 45%
    18:00 +14°C° 0 mm 6 mps 739 mmHg 44%
    19:00 +13°C° 0 mm 6 mps 739 mmHg 43%
    20:00 +12°C° 0 mm 5 mps 739 mmHg 44%
    21:00 +10°C° 0 mm 5 mps 739 mmHg 45%
    22:00 +10°C° 0 mm 5 mps 739 mmHg 46%
    23:00 +9°C° 0 mm 7 mps 739 mmHg 48%

    23 October, Monday

    Time Temperature Precipitation Wind Pressure Humidity
    00:00 +9°C° 0 mm 8 mps 739 mmHg 50%
    01:00 +7°C° 0 mm 9 mps 740 mmHg 52%
    02:00 +6°C° 0 mm 8 mps 740 mmHg 56%
    03:00 +5°C° 0 mm 7 mps 741 mmHg 59%
    04:00 +4°C° 0 mm 7 mps 741 mmHg 63%
    05:00 +5°C° 0 mm 8 mps 742 mmHg 57%
    06:00 +6°C° 0 mm 10 mps 742 mmHg 51%
    07:00 +6°C° 0 mm 11 mps 742 mmHg 45%
    08:00 +7°C° 0 mm 11 mps 742 mmHg 41%
    09:00 +8°C° 0 mm 12 mps 742 mmHg 38%
    10:00 +9°C° 0 mm 12 mps 743 mmHg 34%
    11:00 +9°C° 0 mm 12 mps 743 mmHg 34%
    12:00 +9°C° 0 mm 11 mps 743 mmHg 33%
    13:00 +9°C° 0 mm 11 mps 743 mmHg 33%
    14:00 +9°C° 0 mm 10 mps 743 mmHg 33%
    15:00 +9°C° 0 mm 10 mps 743 mmHg 34%
    16:00 +10°C° 0 mm 9 mps 743 mmHg 34%
    17:00 +8°C° 0 mm 9 mps 743 mmHg 38%
    18:00 +7°C° 0 mm 8 mps 744 mmHg 41%
    19:00 +6°C° 0 mm 7 mps 745 mmHg 44%
    20:00 +5°C° 0 mm 7 mps 745 mmHg 47%
    21:00 +4°C° 0 mm 7 mps 745 mmHg 50%
    22:00 +2°C° 0 mm 8 mps 745 mmHg 52%
    23:00 +2°C° 0 mm 9 mps 745 mmHg 53%

    24 October, Tuesday

    Time Temperature Precipitation Wind Pressure Humidity
    00:00 +2°C° 0 mm 9 mps 746 mmHg 53%
    01:00 +2°C° 0 mm 10 mps 746 mmHg 54%
    02:00 +1°C° 0 mm 10 mps 746 mmHg 54%
    03:00 +1°C° 0 mm 11 mps 746 mmHg 53%
    04:00 +1°C° 0 mm 11 mps 747 mmHg 53%
    05:00 +2°C° 0 mm 12 mps 747 mmHg 52%
    06:00 +3°C° 0 mm 13 mps 748 mmHg 51%
    07:00 +4°C° 0 mm 14 mps 748 mmHg 49%
    08:00 +5°C° 0 mm 14 mps 749 mmHg 48%
    09:00 +5°C° 0 mm 14 mps 749 mmHg 47%
    10:00 +6°C° 0 mm 14 mps 749 mmHg 46%
    11:00 +6°C° 0 mm 14 mps 749 mmHg 45%
    12:00 +8°C° 0 mm 13 mps 750 mmHg 44%
    13:00 +8°C° 0 mm 13 mps 750 mmHg 43%
    14:00 +8°C° 0 mm 12 mps 750 mmHg 44%
    15:00 +8°C° 0 mm 11 mps 751 mmHg 44%
    16:00 +8°C° 0 mm 11 mps 751 mmHg 44%
    17:00 +7°C° 0 mm 9 mps 752 mmHg 48%
    18:00 +6°C° 0 mm 7 mps 752 mmHg 53%
    19:00 +6°C° 0 mm 5 mps 753 mmHg 57%
    20:00 +5°C° 0.1 mm 5 mps 753 mmHg 60%
    21:00 +5°C° 0.1 mm 5 mps 753 mmHg 63%
    22:00 +5°C° 0.1 mm 5 mps 753 mmHg 66%
    23:00 +4°C° 0.3 mm 4 mps 753 mmHg 68%

    25 October, Wednesday

    Time Temperature Precipitation Wind Pressure Humidity
    00:00 +4°C° 0.3 mm 4 mps 753 mmHg 70%
    01:00 +4°C° 0.3 mm 4 mps 753 mmHg 71%
    02:00 +4°C° 0.2 mm 4 mps 754 mmHg 73%
    03:00 +4°C° 0.2 mm 4 mps 754 mmHg 74%
    04:00 +4°C° 0.2 mm 4 mps 755 mmHg 75%
    05:00 +4°C° 0 mm 4 mps 756 mmHg 71%
    06:00 +5°C° 0 mm 4 mps 756 mmHg 67%
    07:00 +6°C° 0 mm 5 mps 757 mmHg 63%
    08:00 +7°C° 0 mm 5 mps 757 mmHg 59%
    09:00 +8°C° 0 mm 4 mps 757 mmHg 54%
    10:00 +8°C° 0 mm 4 mps 757 mmHg 50%
    11:00 +10°C° 0 mm 4 mps 757 mmHg 48%
    12:00 +11°C° 0 mm 4 mps 757 mmHg 46%
    13:00 +11°C° 0 mm 3 mps 757 mmHg 44%
    14:00 +12°C° 0 mm 4 mps 757 mmHg 44%
    15:00 +12°C° 0 mm 4 mps 757 mmHg 44%
    16:00 +12°C° 0 mm 4 mps 757 mmHg 44%
    17:00 +12°C° 0 mm 4 mps 757 mmHg 50%
    18:00 +11°C° 0 mm 4 mps 757 mmHg 55%
    19:00 +10°C° 0 mm 3 mps 758 mmHg 60%
    20:00 +10°C° 0 mm 4 mps 758 mmHg 62%
    21:00 +9°C° 0 mm 5 mps 758 mmHg 65%
    22:00 +8°C° 0 mm 5 mps 758 mmHg 68%
    23:00 +8°C° 0.1 mm 5 mps 758 mmHg 70%
    Show more